Wind_Speed
6 5 5 6 8 9 11 13 15 17 19 21 22 23 25 26 27 28 29 28 27 27 28 29 28 28 27 27 27 27 26 27 27 26 26 26 25 26
7 5 4 5 7 8 10 12 13 15 18 20 22 22 24 24 26 27 29 28 28 27 28 29 29 29 29 29 28 29 28 28 28 27 27 27 27 27
8 6 5 4 6 7 9 11 12 13 15 18 21 21 23 24 25 26 27 28 29 28 29 29 30 29 29 29 29 29 29 29 29 29 29 28 28 28
8 7 5 5 5 6 8 10 12 13 14 16 19 20 21 23 24 25 25 27 28 28 29 30 30 30 30 30 30 30 30 30 30 30 30 31 30 30
9 7 6 6 6 7 8 10 11 13 14 16 18 19 20 22 24 25 25 26 27 29 30 30 30 30 30 29 29 29 29 30 30 30 30 31 31 31
10 8 7 7 7 8 8 9 11 12 14 15 17 18 20 21 22 23 23 25 26 27 28 29 29 30 30 29 29 29 29 30 30 31 31 32 32 32
11 10 10 9 9 10 10 11 11 12 14 15 16 17 18 20 21 22 23 23 24 26 27 28 30 30 30 30 30 30 30 30 31 31 32 33 33 34
12 12 11 11 10 11 11 12 13 14 15 16 17 18 18 19 21 22 23 23 24 26 27 28 29 29 30 30 29 30 31 31 31 32 32 32 33 34
15 14 13 13 12 12 13 13 13 15 16 17 19 20 20 20 21 22 23 23 25 26 27 29 30 30 31 31 31 32 32 32 32 33 32 32 34 34
17 16 16 15 15 15 15 15 15 16 17 18 19 20 21 22 22 22 23 23 25 26 27 28 29 30 30 31 32 32 32 33 33 34 34 35 35 36
19 19 18 18 18 18 17 17 17 18 18 19 20 21 22 23 23 23 24 24 25 26 27 28 29 29 30 31 31 32 32 33 34 34 34 35 35 36
23 22 21 21 20 20 20 20 20 20 20 20 21 22 23 23 23 24 24 25 26 26 27 29 29 30 30 31 32 32 32 33 33 34 34 35 36 36
26 25 24 24 23 23 22 22 22 22 22 22 22 23 23 24 25 25 25 26 26 27 28 28 29 30 30 31 32 33 33 34 34 34 35 35 36 36
29 28 27 26 26 25 25 24 24 24 24 23 23 23 24 25 25 26 26 26 26 27 27 28 29 30 30 31 32 33 33 34 34 35 35 35 36 36
32 31 31 30 29 28 27 27 26 26 26 25 25 25 25 25 25 26 26 27 27 27 28 28 29 29 30 30 32 32 33 34 34 35 35 36 37 37
34 34 33 32 32 31 29 29 28 28 27 27 27 27 27 26 26 26 27 27 27 27 28 28 29 29 29 29 30 31 31 32 34 35 36 37 38 39
37 36 35 34 34 33 32 31 30 29 29 29 28 28 28 28 28 28 28 28 28 28 28 29 29 30 30 31 31 31 32 32 33 34 35 36 37 38
40 38 37 36 35 35 34 33 33 32 31 30 30 30 30 30 29 29 29 29 29 29 29 30 30 30 31 31 31 32 33 33 34 35 36 36 37 38
41 40 39 38 37 36 36 35 35 34 34 33 32 31 31 31 30 30 30 30 30 30 30 30 30 30 30 31 31 32 33 34 35 35 36 36 37 37
43 42 41 40 39 38 37 37 36 36 36 35 34 34 33 32 32 32 31 31 31 31 31 31 31 31 31 31 32 32 33 33 34 35 36 36 37 38
45 44 43 42 41 41 40 39 38 38 37 36 36 35 35 34 34 33 33 33 33 33 32 32 33 33 33 33 33 33 33 34 34 35 35 35 36 37
47 46 45 43 42 43 42 41 40 40 39 38 37 36 35 35 35 34 34 34 34 33 33 33 33 34 34 34 34 35 35 35 35 35 35 36 37 37
48 47 46 46 44 43 43 43 42 41 40 39 38 38 37 36 35 35 34 34 34 34 33 33 33 34 34 34 35 35 35 35 36 36 36 37 37 37
Wind_Direction
335 312 280 256 241 231 229 228 226 223 221 219 218 220 220 221 223 223 223 224 226 226 227 228 230 230 231 233 234 236 238 240 242 243 244 245 246 249
341 325 298 269 245 234 231 231 229 227 223 221 222 221 222 223 225 225 225 228 230 231 230 230 231 232 235 235 236 239 241 242 242 245 247 248 250 252
338 329 312 283 256 239 233 232 231 227 225 225 226 224 225 225 228 227 228 229 230 233 234 233 233 235 237 239 240 241 241 243 244 247 249 251 254 253
337 326 311 291 267 250 241 237 234 231 230 229 228 228 229 229 227 228 229 230 231 233 234 235 236 236 239 242 243 243 244 245 246 248 250 252 254 256
332 323 307 289 271 259 251 244 238 234 233 232 232 231 231 233 231 231 232 231 233 234 234 236 237 237 239 242 242 243 245 245 247 249 251 253 255 256
323 317 305 288 273 262 257 252 244 238 235 235 234 234 234 234 233 233 234 234 234 235 235 237 238 238 238 241 242 243 245 246 247 249 252 254 255 256
313 307 301 291 280 268 261 257 251 244 239 238 235 235 235 235 236 235 236 238 236 237 238 239 240 240 240 241 243 244 246 248 249 250 253 255 256 257
306 302 296 290 283 276 266 260 256 249 244 241 240 241 240 239 239 239 240 241 240 239 241 242 243 242 242 243 244 246 248 250 251 253 256 257 257 258
298 296 292 286 281 276 270 264 262 257 251 247 245 244 244 242 241 241 243 244 244 244 244 245 246 247 246 246 247 249 250 252 254 255 256 257 258 259
290 289 287 283 280 275 271 267 263 260 256 252 248 246 245 244 244 245 245 247 248 247 247 247 248 249 251 252 251 251 252 254 255 256 257 259 260 261
284 283 282 280 277 275 272 267 264 261 259 256 253 251 249 247 246 248 248 249 250 249 249 249 249 250 252 254 254 255 255 254 255 257 258 259 260 262
279 278 277 276 274 273 272 269 265 262 261 259 257 254 253 250 249 250 251 251 252 252 252 251 251 252 253 254 255 257 257 257 257 258 259 261 262 263
275 274 274 273 272 271 270 268 265 262 261 260 258 257 256 253 251 252 253 253 254 254 253 253 254 254 256 257 258 257 259 261 260 259 260 261 263 263
273 272 271 270 270 269 268 266 264 262 260 260 259 259 257 255 253 254 255 255 255 256 256 255 256 257 258 259 259 258 259 261 262 261 262 264 265 265
271 270 269 268 267 267 266 264 262 260 260 259 259 259 259 257 255 255 256 256 256 257 257 257 258 259 260 261 261 260 261 262 263 262 264 266 267 267
269 268 268 266 265 263 263 262 260 260 259 259 258 258 258 258 258 258 257 257 257 257 257 259 260 262 262 263 263 263 263 264 265 265 265 267 268 268
266 266 265 264 263 262 261 259 259 259 258 258 258 257 256 257 258 259 258 258 258 259 260 261 262 263 264 265 265 265 265 267 267 268 268 269 270 271
264 263 263 263 262 262 261 260 259 258 258 258 258 258 258 257 258 258 258 258 259 259 260 263 265 265 265 266 267 267 267 268 268 269 269 271 272 273
262 261 261 261 260 260 260 259 258 257 257 257 257 258 259 258 257 258 258 258 259 260 260 263 264 265 266 266 267 269 270 269 270 271 272 273 274 274
260 259 258 258 257 257 257 258 257 256 256 256 257 257 258 257 258 258 259 259 260 261 261 263 264 265 266 267 268 269 271 272 273 273 274 275 275 275
259 258 257 256 255 255 255 255 255 255 255 255 256 256 257 258 258 259 259 260 261 261 262 263 264 265 266 268 269 270 271 272 274 276 276 276 277 277
258 257 255 255 254 253 253 253 253 253 253 254 255 256 256 257 259 259 259 259 260 262 262 263 264 265 266 267 269 270 271 272 274 275 276 277 278 278
256 255 253 253 253 253 252 252 253 253 252 252 253 255 256 257 257 258 258 259 260 261 262 262 263 265 266 268 269 270 271 273 273 274 276 277 278 279
Height
5786 5785 5784 5784 5785 5786 5787 5789 5791 5793 5795 5798 5801 5803 5806 5810 5813 5817 5820 5824 5827 5831 5834 5837 5840 5843 5845 5848 5851 5854 5856 5858 5860 5862 5864 5866 5868 5869
5786 5784 5784 5784 5784 5785 5786 5787 5788 5790 5792 5794 5797 5800 5803 5806 5809 5812 5816 5819 5823 5826 5829 5832 5835 5837 5840 5843 5846 5848 5851 5853 5855 5857 5859 5860 5862 5863
5785 5784 5783 5783 5783 5783 5784 5785 5786 5788 5789 5792 5794 5796 5799 5802 5805 5808 5811 5814 5817 5820 5823 5826 5829 5832 5835 5837 5840 5842 5844 5847 5849 5851 5853 5854 5855 5857
5785 5784 5783 5782 5782 5782 5783 5783 5784 5785 5787 5789 5791 5793 5795 5798 5801 5804 5806 5809 5812 5815 5817 5820 5823 5826 5828 5831 5833 5835 5838 5840 5842 5844 5846 5848 5849 5850
5784 5783 5782 5781 5781 5781 5781 5781 5782 5783 5784 5786 5787 5789 5791 5794 5796 5799 5801 5804 5806 5809 5812 5814 5817 5820 5822 5824 5826 5829 5831 5833 5835 5837 5839 5841 5842 5843
5783 5782 5781 5780 5779 5779 5779 5779 5780 5781 5782 5783 5784 5785 5787 5789 5791 5794 5796 5798 5801 5803 5806 5808 5811 5813 5816 5818 5820 5822 5824 5826 5828 5830 5832 5833 5834 5836
5782 5780 5779 5778 5778 5777 5777 5777 5777 5778 5779 5779 5781 5782 5784 5785 5787 5789 5791 5793 5795 5798 5800 5803 5805 5807 5809 5811 5813 5815 5817 5819 5821 5823 5824 5825 5827 5828
5780 5778 5777 5776 5775 5775 5774 5774 5774 5775 5775 5776 5777 5778 5779 5781 5782 5784 5786 5788 5790 5792 5794 5796 5798 5800 5802 5804 5806 5808 5810 5812 5814 5815 5816 5817 5818 5819
5777 5775 5774 5773 5772 5771 5771 5771 5771 5771 5771 5772 5773 5773 5775 5776 5777 5779 5780 5782 5784 5785 5787 5789 5791 5793 5795 5797 5799 5800 5802 5804 5805 5807 5808 5809 5810 5811
5772 5771 5770 5769 5768 5767 5767 5766 5766 5766 5766 5767 5768 5768 5769 5771 5772 5773 5774 5776 5777 5779 5780 5782 5784 5786 5787 5789 5790 5792 5794 5796 5797 5798 5799 5800 5801 5802
5767 5766 5765 5764 5763 5763 5762 5761 5761 5761 5761 5761 5762 5763 5764 5765 5766 5767 5768 5770 5771 5772 5773 5775 5777 5778 5780 5781 5782 5784 5785 5787 5788 5789 5790 5791 5792 5792
5761 5760 5759 5758 5758 5757 5756 5756 5755 5755 5755 5755 5756 5757 5757 5758 5759 5761 5762 5763 5764 5765 5766 5767 5769 5770 5772 5773 5774 5775 5776 5778 5779 5780 5781 5782 5782 5783
5753 5753 5752 5751 5751 5750 5749 5749 5749 5748 5748 5749 5749 5750 5750 5751 5752 5753 5754 5755 5756 5757 5758 5760 5761 5762 5763 5764 5765 5766 5767 5768 5769 5770 5771 5772 5772 5773
5744 5744 5743 5743 5742 5742 5742 5741 5741 5741 5741 5741 5742 5742 5743 5744 5745 5745 5746 5747 5748 5749 5750 5751 5753 5754 5755 5756 5757 5758 5758 5759 5760 5760 5761 5762 5762 5762
5734 5734 5733 5733 5733 5733 5733 5733 5733 5733 5733 5733 5734 5735 5735 5736 5736 5737 5738 5739 5740 5741 5742 5743 5744 5745 5746 5747 5748 5749 5749 5750 5750 5751 5751 5752 5752 5752
5722 5722 5722 5722 5722 5723 5723 5723 5724 5724 5725 5725 5726 5726 5727 5728 5728 5729 5730 5731 5732 5733 5734 5735 5736 5737 5738 5738 5739 5739 5740 5741 5741 5741 5741 5741 5741 5741
5709 5709 5710 5710 5711 5711 5712 5713 5714 5715 5715 5716 5717 5718 5719 5719 5720 5721 5722 5723 5724 5725 5726 5727 5727 5728 5728 5729 5730 5730 5730 5731 5731 5731 5732 5731 5731 5730
5695 5696 5697 5698 5699 5700 5701 5702 5703 5705 5706 5707 5708 5708 5709 5710 5711 5712 5713 5714 5715 5716 5717 5718 5718 5719 5719 5720 5720 5720 5721 5721 5721 5721 5721 5720 5720 5719
5680 5682 5684 5685 5687 5688 5689 5690 5692 5694 5695 5696 5697 5699 5700 5701 5702 5703 5704 5705 5706 5707 5707 5708 5709 5709 5710 5710 5711 5710 5711 5711 5710 5710 5710 5709 5708 5707
5665 5667 5669 5671 5673 5675 5676 5678 5680 5682 5683 5685 5687 5688 5689 5691 5692 5693 5694 5695 5696 5697 5698 5699 5699 5700 5700 5701 5701 5701 5700 5700 5700 5699 5699 5698 5697 5696
5650 5652 5654 5656 5659 5661 5663 5665 5667 5669 5671 5673 5675 5677 5678 5680 5681 5682 5684 5685 5686 5687 5688 5689 5689 5689 5690 5690 5691 5690 5690 5689 5689 5688 5687 5686 5686 5685
5634 5636 5638 5641 5644 5646 5649 5651 5654 5656 5658 5661 5663 5664 5667 5668 5670 5671 5672 5674 5675 5676 5677 5678 5678 5679 5679 5680 5680 5680 5679 5679 5678 5677 5676 5675 5674 5673
5617 5620 5622 5625 5628 5631 5634 5637 5640 5642 5645 5648 5650 5652 5654 5656 5658 5660 5661 5662 5664 5665 5666 5667 5667 5668 5668 5668 5668 5668 5668 5667 5667 5666 5665 5664 5663 5661